Location: Poprad
(49.0500°N, 20.3000°E)
Time: 18:06:08
(UTC+02:00)

RS-44 - Pass Details

Date: 20 April 2024
Orbit: 1174 x 1511 km, 82.5° (Epoch: 20 May)

Event Time Altitude Azimuth Distance (km) Brightness Sun altitude
Rises 23:22:19 0° 258° (WSW) 4,618 ? -26.8°
Reaches altitude 10° 23:27:15 10° 282° (WNW) 3,598 ? -27.1°
Maximum altitude 23:31:29 14° 312° (NW) 3,225 ? -27.3°
Drops below altitude 10° 23:35:38 10° 342° (NNW) 3,496 ? -27.5°
Sets 23:40:21 0° 7° (N) 4,401 ? -27.7°
